This demonstration page uses our WeatherBlox Daily Observations layout. Learn more.

Left ArrowRight Arrow

41.86663, -103.66717

Hourly Observations for June 11, 2022

Temp ( °F °C ) Dew Point ( °F °C ) Humidity (%) Winds ( mph kmh ) Pressure ( in mb ) Visibility ( mi km ) Precip ( " mm )
12:53 am 00:53 Clear 65 18.3 51 10.6 61 61 E 6 9 29.72 1007 10 16 0.00 0.00
1:53 am 01:53 Clear 63 17.2 51 10.6 65 65 E 5 7 29.71 1006 10 16 0.00 0.00
2:53 am 02:53 Clear 62 16.7 52 11.1 70 70 Calm 29.70 1006 10 16 0.00 0.00
3:53 am 03:53 Clear 58 14.4 51 10.6 78 78 VRB 7 11 29.71 1006 10 16 0.00 0.00
4:53 am 04:53 Clear 57 13.9 50 10 78 78 NW 7 11 29.72 1006 10 16 0.00 0.00
5:53 am 05:53 Sunny 57 13.9 50 10 78 78 NW 9 15 29.73 1007 10 16 0.00 0.00
6:53 am 06:53 Sunny 63 17.2 51 10.6 65 65 NW 8 13 29.75 1007 10 16 0.00 0.00
7:53 am 07:53 Sunny 70 21.1 50 10 49 49 WNW 13 20 29.76 1008 10 16 0.00 0.00
8:53 am 08:53 Sunny 77 25 53 11.7 43 43 WNW 8 13 29.77 1008 10 16 0.00 0.00
9:53 am 09:53 Sunny 82 27.8 57 13.9 42 42 NNW 8 13 29.76 1008 10 16 0.00 0.00
10:53 am 10:53 Sunny 84 28.9 55 12.8 37 37 VRB 3 6 29.76 1008 10 16 0.00 0.00
11:53 am 11:53 Sunny 88 31.1 55 12.8 33 33 NNE 8 13 29.74 1007 10 16 0.00 0.00
12:53 pm 12:53 Sunny 88 31.1 53 11.7 30 30 VRB 3 6 29.72 1006 10 16 0.00 0.00
1:53 pm 13:53 Sunny 90 32.2 53 11.7 28 28 Calm 29.68 1005 10 16 0.00 0.00
2:53 pm 14:53 Sunny 93 33.9 52 11.1 25 25 ENE 9 15 29.65 1004 10 16 0.00 0.00
3:53 pm 15:53 Sunny 93 33.9 54 12.2 27 27 SE 14 22 29.64 1004 10 16 0.00 0.00
4:53 pm 16:53 Sunny 92 33.3 53 11.7 27 27 SE 18 30 29.64 1004 10 16 0.00 0.00
5:53 pm 17:53 Sunny 93 33.9 52 11.1 25 25 SE 17 28 29.61 1003 10 16 0.00 0.00
6:53 pm 18:53 Sunny 91 32.8 51 10.6 26 26 ESE 14 22 29.59 1002 10 16 0.00 0.00
7:53 pm 19:53 Sunny 85 29.4 52 11.1 32 32 SE 10 17 29.60 1003 10 16 0.00 0.00
8:53 pm 20:53 Clear 83 28.3 50 10 32 32 ESE 13 20 29.57 1001 10 16 0.00 0.00
9:53 pm 21:53 Clear 80 26.7 51 10.6 37 37 SE 3 6 29.60 1002 10 16 0.00 0.00
10:53 pm 22:53 Clear 83 28.3 50 10 32 32 SSE 12 19 29.59 1002 10 16 0.00 0.00
11:53 pm 23:53 Clear 73 22.8 50 10 44 44 ESE 9 15 29.60 1002 10 16 0.00 0.00

Powered by AerisWeather